Location: Godzisko
(49.9648°N, 19.4576°E)
Time: 07:40:55
(UTC+00:00)

Nadezhda 3 Rocket - Pass Details

Date: 20 April 2021
Orbit: 956 x 1000 km, 82.9° (Epoch: 06 May)

Event Time Altitude Azimuth Distance (km) Brightness Sun altitude
Exits shadow 01:15:49 28° 189° (S) 1,764 4.9 -19.8°
Maximum altitude 01:19:24 88° 276° (W) 1,003 4.0 -19.4°
Drops below altitude 10° 01:25:46 10° 9° (N) 2,760 7.2 -18.7°
Sets 01:28:17 0° 10° (N) 3,707 8.0 -18.5°
